Weather History for KUXL - March, 2013

Change the Weather History Date:

Saturday, March 30, 2013

  Actual Average (KLCH) Record (KLCH)
Temperature  
Mean Temperature 68 °F 64 °F  
Max Temperature 75 °F 75 °F 94 °F (1946)
Min Temperature 60 °F 54 °F 34 °F (1913)
Degree Days  
Heating Degree Days 0 3  
Month to date heating degree days 159  
Since 1 July heating degree days 1441  
Cooling Degree Days 2 2  
Month to date cooling degree days 47  
Year to date cooling degree days 70  
Growing Degree Days 18 (Base 50)    
Moisture  
Dew Point 62 °F    
Average Humidity 85    
Maximum Humidity 100    
Minimum Humidity 57    
Precipitation  
Precipitation 0.00 in 0.11 in 3.40 in (1935)
Month to date precipitation 3.55  
Year to date precipitation 12.24  
Snow  
Snow 0.00 in 0.00 in 0.00 in ()
Month to date snowfall 0.0  
Since 1 July snowfall 0.1  
Snow Depth -    
Sea Level Pressure  
Sea Level Pressure 30.10 in    
Wind  
Wind Speed 6 mph (SSE)    
Max Wind Speed 21 mph    
Max Gust Speed 25 mph    
Visibility 10 miles    
Events      
T = Trace of Precipitation, MM = Missing Value Source: NWS Daily Summary

Daily Weather History Graph

Daily Weather History Graph

Search for Another Location

Airport or City:

Trip Planner

Search our weather history database for the weather conditions in past years. The results will help you decide how hot, cold, wet, or windy it might be!

Date:

Astronomy

Mar. 30, 2013 Rise Set
Actual Time 7:04 AM CDT 7:31 PM CDT
Civil Twilight 6:40 AM CDT 7:55 PM CDT
Nautical Twilight 6:12 AM CDT 8:23 PM CDT
Astronomical Twilight 5:44 AM CDT 8:52 PM CDT
Moon 11:20 PM CDT (3/30) 9:16 AM CDT (3/30)
Length of Visible Light 13h 14m
Length of Day
12h 26m
Waning Gibbous, 86% of the Moon is Illuminated
Mar 30
Waning Gibbous
Apr 2
Last Quarter
Apr 10
New
Apr 18
First Quarter
Apr 25
Full

Hourly Weather History & Observations

Time (CDT) Temp. Dew Point Humidity Pressure Visibility Wind Dir Wind Speed Gust Speed Precip Events Conditions
12:15 AM 60.8 °F 60.8 °F 100% 30.19 in 10.0 mi Calm Calm - N/A   Clear
12:35 AM 60.8 °F 60.8 °F 100% 30.18 in 10.0 mi SE 3.5 mph - N/A   Clear
12:55 AM 60.8 °F 60.8 °F 100% 30.18 in 10.0 mi SE 3.5 mph - N/A   Clear
1:15 AM 60.8 °F 60.8 °F 100% 30.17 in 10.0 mi SE 4.6 mph - N/A   Clear
1:35 AM 60.8 °F 60.8 °F 100% 30.17 in 10.0 mi SE 4.6 mph - N/A   Clear
1:55 AM 60.8 °F 60.8 °F 100% 30.17 in 10.0 mi SE 3.5 mph - N/A   Clear
2:15 AM 62.6 °F 60.8 °F 94% 30.16 in 10.0 mi SE 3.5 mph - N/A   Clear
2:35 AM 62.6 °F 60.8 °F 94% 30.16 in 10.0 mi ESE 3.5 mph - N/A   Clear
2:55 AM 62.6 °F 60.8 °F 94% 30.15 in 10.0 mi Calm Calm - N/A   Clear
3:15 AM 60.8 °F 60.8 °F 100% 30.14 in 10.0 mi ESE 4.6 mph - N/A   Clear
3:35 AM 60.8 °F 60.8 °F 100% 30.14 in 10.0 mi ESE 3.5 mph - N/A   Clear
3:55 AM 62.6 °F 60.8 °F 94% 30.13 in 10.0 mi SE 4.6 mph - N/A   Clear
4:15 AM 62.6 °F 60.8 °F 94% 30.12 in 10.0 mi ESE 5.8 mph - N/A   Clear
4:35 AM 62.6 °F 60.8 °F 94% 30.11 in 10.0 mi ESE 3.5 mph - N/A   Clear
4:55 AM 60.8 °F 60.8 °F 100% 30.10 in 10.0 mi ESE 4.6 mph - N/A   Clear
5:15 AM 60.8 °F 60.8 °F 100% 30.10 in 10.0 mi ESE 4.6 mph - N/A   Clear
5:35 AM 60.8 °F 60.8 °F 100% 30.11 in 10.0 mi Calm Calm - N/A   Clear
5:55 AM 60.8 °F 60.8 °F 100% 30.11 in 7.0 mi Calm Calm - N/A   Clear
6:15 AM 60.8 °F 60.8 °F 100% 30.12 in 7.0 mi Calm Calm - N/A   Clear
6:35 AM 60.8 °F 60.8 °F 100% 30.11 in 4.0 mi SSE 4.6 mph - N/A   Clear
6:55 AM 62.6 °F 62.6 °F 100% 30.11 in 10.0 mi SSE 5.8 mph - N/A   Clear
7:15 AM 62.6 °F 62.6 °F 100% 30.11 in 10.0 mi SE 9.2 mph - N/A   Clear
7:35 AM 62.6 °F 62.6 °F 100% 30.14 in 10.0 mi Calm Calm - N/A   Clear
7:55 AM 62.6 °F 62.6 °F 100% 30.16 in 10.0 mi Calm Calm - N/A   Clear
8:15 AM 64.4 °F 62.6 °F 94% 30.16 in 10.0 mi SE 3.5 mph - N/A   Clear
8:35 AM 64.4 °F 64.4 °F 100% 30.17 in 10.0 mi South 5.8 mph - N/A   Clear
8:55 AM 66.2 °F 64.4 °F 94% 30.17 in 10.0 mi South 4.6 mph - N/A   Clear
9:15 AM 68.0 °F 64.4 °F 88% 30.16 in 10.0 mi SSE 6.9 mph - N/A   Clear
9:35 AM 68.0 °F 64.4 °F 88% 30.16 in 10.0 mi South 6.9 mph - N/A   Clear
9:55 AM 69.8 °F 64.4 °F 83% 30.16 in 10.0 mi South 8.1 mph - N/A   Scattered Clouds
10:15 AM 71.6 °F 64.4 °F 78% 30.17 in 10.0 mi South 6.9 mph - N/A   Scattered Clouds
10:35 AM 71.6 °F 62.6 °F 73% 30.17 in 10.0 mi South 8.1 mph - N/A   Overcast
10:55 AM 69.8 °F 62.6 °F 78% 30.16 in 10.0 mi South 8.1 mph - N/A   Mostly Cloudy
11:15 AM 73.4 °F 60.8 °F 65% 30.11 in 10.0 mi SSE 20.7 mph 25.3 mph N/A   Scattered Clouds
11:35 AM 73.4 °F 60.8 °F 65% 30.10 in 10.0 mi South 16.1 mph 23.0 mph N/A   Scattered Clouds
11:55 AM 71.6 °F 60.8 °F 69% 30.11 in 10.0 mi SSE 13.8 mph 19.6 mph N/A   Scattered Clouds
12:15 PM 73.4 °F 60.8 °F 65% 30.11 in 10.0 mi South 15.0 mph - N/A   Scattered Clouds
12:35 PM 75.2 °F 59.0 °F 57% 30.12 in 10.0 mi SSW 16.1 mph 19.6 mph N/A   Scattered Clouds
12:55 PM 73.4 °F 59.0 °F 61% 30.11 in 10.0 mi South 15.0 mph 21.9 mph N/A   Scattered Clouds
1:15 PM 71.6 °F 59.0 °F 64% 30.11 in 10.0 mi South 13.8 mph 18.4 mph N/A   Clear
1:35 PM 75.2 °F 60.8 °F 61% 30.11 in 10.0 mi South 15.0 mph - N/A   Clear
1:55 PM 75.2 °F 59.0 °F 57% 30.11 in 10.0 mi South 15.0 mph 21.9 mph N/A   Scattered Clouds
2:15 PM 75.2 °F 60.8 °F 61% 30.10 in 10.0 mi SSW 16.1 mph 20.7 mph N/A   Mostly Cloudy
2:35 PM 75.2 °F 60.8 °F 61% 30.09 in 10.0 mi South 13.8 mph 23.0 mph N/A   Scattered Clouds
2:55 PM 73.4 °F 60.8 °F 65% 30.08 in 10.0 mi South 16.1 mph 20.7 mph N/A   Mostly Cloudy
3:15 PM 73.4 °F 60.8 °F 65% 30.07 in 10.0 mi South 15.0 mph 20.7 mph N/A   Overcast
3:35 PM 73.4 °F 60.8 °F 65% 30.06 in 10.0 mi South 16.1 mph - N/A   Overcast
3:55 PM 71.6 °F 60.8 °F 69% 30.05 in 10.0 mi South 15.0 mph 20.7 mph N/A   Overcast
4:15 PM 71.6 °F 60.8 °F 69% 30.05 in 10.0 mi South 12.7 mph 19.6 mph N/A   Overcast
4:35 PM 71.6 °F 60.8 °F 69% 30.04 in 10.0 mi South 15.0 mph - N/A   Overcast
4:55 PM 71.6 °F 60.8 °F 69% 30.04 in 10.0 mi South 12.7 mph 19.6 mph N/A   Overcast
5:15 PM 71.6 °F 60.8 °F 69% 30.04 in 10.0 mi South 13.8 mph 19.6 mph N/A   Overcast
5:35 PM 71.6 °F 60.8 °F 69% 30.05 in 10.0 mi South 13.8 mph - N/A   Overcast
5:55 PM 71.6 °F 60.8 °F 69% 30.05 in 10.0 mi South 12.7 mph - N/A   Overcast
6:15 PM 71.6 °F 60.8 °F 69% 30.04 in 10.0 mi South 11.5 mph 17.3 mph N/A   Overcast
6:35 PM 71.6 °F 62.6 °F 73% 30.04 in 10.0 mi South 12.7 mph - N/A   Overcast
6:55 PM 69.8 °F 62.6 °F 78% 30.04 in 10.0 mi SSE 10.4 mph - N/A   Scattered Clouds
7:15 PM 68.0 °F 62.6 °F 83% 30.04 in 10.0 mi South 9.2 mph - N/A   Clear
7:35 PM 68.0 °F 62.6 °F 83% 30.03 in 10.0 mi South 8.1 mph - N/A   Clear
7:55 PM 66.2 °F 62.6 °F 88% 30.03 in 10.0 mi South 6.9 mph - N/A   Clear
8:15 PM 64.4 °F 62.6 °F 94% 30.02 in 10.0 mi SSE 5.8 mph - N/A   Clear
8:35 PM 64.4 °F 62.6 °F 94% 30.02 in 10.0 mi SE 6.9 mph - N/A   Clear
8:55 PM 64.4 °F 62.6 °F 94% 30.03 in 10.0 mi South 9.2 mph - N/A   Clear
9:15 PM 64.4 °F 62.6 °F 94% 30.03 in 10.0 mi SSE 6.9 mph - N/A   Clear
9:35 PM 64.4 °F 62.6 °F 94% 30.04 in 10.0 mi South 8.1 mph - N/A   Clear
9:55 PM 64.4 °F 62.6 °F 94% 30.04 in 10.0 mi South 5.8 mph - N/A   Clear
10:35 PM 64.4 °F 62.6 °F 94% 30.04 in 10.0 mi South 4.6 mph - N/A   Clear
10:55 PM 62.6 °F 62.6 °F 100% 30.03 in 10.0 mi South 5.8 mph - N/A   Clear
11:15 PM 62.6 °F 62.6 °F 100% 30.03 in 7.0 mi South 4.6 mph - N/A   Clear
11:35 PM 62.6 °F 62.6 °F 100% 30.03 in 7.0 mi South 4.6 mph - N/A   Clear
11:55 PM 64.4 °F 62.6 °F 94% 30.02 in 7.0 mi SSE 6.9 mph - N/A   Scattered Clouds